User: anonymous   Login
Location: Unspecified
(0.0000°N, 0.0000°E)
Time: 00:15:01
(UTC+00:00)
Language:

Transit 2A - Orbit

View from above orbital plane
View from above orbital plane
View from above satellite
View from above satellite

Ground track
Ground track

The orbit data is extracted from the following two-line orbital elements,

1    45U 60007A   17326.48334008 -.00000014 +00000-0 +23488-4 0  9996
2    45 066.6944 332.5161 0263015 278.0985 079.0356 14.33578909931421
Epoch (UTC): 22 November 2017 11:36:00
Eccentricity: 0.0263015
inclination: 66.6944°
perigee height: 591 km
apogee height: 968 km
right ascension of ascending node: 332.5161°
argument of perigee: 278.0985°
revolutions per day: 14.33578909
mean anomaly at epoch: 79.0356°
orbit number at epoch: 93142

The dashed part of the orbit path shows where the satellite is in the earth's shadow,  

DLR